Regional Weather Roundup
Issued by NWS

Home | Current Version | Previous Version | Graphics & Text | Print | Product List | Glossary Off
Versions: 1 2 3 4 5 6 7 8 9 10 11 12 13 14 15 16 17 18 19 20 21 22 23 24 25 26 27 28 29 30 31 32 33 34 35 36 37 38 39 40 41 42 43 44 45 46 47 48 49 50

000
ASUS43 KDMX 191806
RWRIA

WEATHER ROUNDUP FOR IOWA
NATIONAL WEATHER SERVICE DES MOINES IA
100 PM CDT SAT AUG 19 2017

NOTE: "FAIR" INDICATES FEW OR NO CLOUDS BELOW 12,000 FEET WITH NO
SIGNIFICANT WEATHER AND/OR OBSTRUCTIONS TO VISIBILITY.

* - THESE STATIONS ARE NOT NWS STATIONS...THUS NOT UNDER NWS
QUALITY CONTROL.  THEY ALSO DO NOT REPORT WEATHER SUCH
AS PRECIPITATION OR FOG.

IAZ001>003-012>014-020>022-031>034-043>046-191900-
   NORTHWEST IOWA

CITY           SKY/WX    TMP DP  RH WIND       PRES   REMARKS
CARROLL *      MOSUNNY   75  68  78 CALM      29.97F
CHEROKEE *     SUNNY     76  65  68 S3        29.96F
DENISON *      SUNNY     75  64  69 CALM      29.98F
LE MARS *      SUNNY     77  63  61 CALM      29.95F
ORANGE CITY *  SUNNY     75  66  73 SE3       29.96F
SHELDON *      SUNNY     75  64  69 VRB6      29.95F
SIOUX CITY     SUNNY     78  66  66 VRB6      29.95F HX  80
6HR MIN TEMP:  54; 6HR MAX TEMP:  78;

SPENCER        SUNNY     75  63  66 VRB3      29.96F
6HR MIN TEMP:  53; 6HR MAX TEMP:  76; 6HR PCP: TRACE;

STORM LAKE *     N/A     73  66  78 SE7       29.97F
$$

IAZ055>058-069>071-079>083-090>094-191900-
   SOUTHWEST IOWA

CITY           SKY/WX    TMP DP  RH WIND       PRES   REMARKS
ATLANTIC *     SUNNY     79  64  61 CALM      29.96F HX  81
AUDUBON *      SUNNY     77  66  69 CALM      29.99S
CLARINDA *     SUNNY     82  63  51 CALM      29.99F HX  83
COUNCIL BLFS * SUNNY     81  61  50 CALM      29.97F HX  81
CRESTON *      SUNNY     81  59  47 VRB5      29.99S HX  81
HARLAN  *      SUNNY     79  64  61 CALM      30.00S HX  81
LAMONI         SUNNY     84  59  42 VRB5      29.97F HX  84
6HR MIN TEMP:  63; 6HR MAX TEMP:  85;

RED OAK *      SUNNY     81  64  57 CALM      29.97F HX  82
SHENANDOAH *   SUNNY     81  57  44 CALM      29.98S HX  81
$$

IAZ047>049-059>061-072>074-084-191900-
   CENTRAL IOWA

CITY           SKY/WX    TMP DP  RH WIND       PRES   REMARKS
AMES           PTSUNNY   78  68  71 MISG      29.97S HX  80
6HR MIN TEMP:  62; 6HR MAX TEMP:  78;

ANKENY *       MOSUNNY   75  66  73 CALM      29.97S
BOONE *        PTSUNNY   77  66  69 VRB8      29.96F
CHARITON *     SUNNY     81  61  50 VRB5G12   29.96S HX  81
DES MOINES     MOSUNNY   78  65  63 CALM      29.95F HX  80
6HR MIN TEMP:  65; 6HR MAX TEMP:  79;

GRINNELL*      MOSUNNY   77  65  65 E6        29.98S
KNOXVILLE *    SUNNY     82  57  42 N7        29.94F HX  82
MARSHALLTOWN   PTSUNNY   76  63  64 SE5       29.97S
6HR MIN TEMP:  60; 6HR MAX TEMP:  77;

NEWTON *       PTSUNNY   77  66  69 E7        29.96F
PELLA *        MOSUNNY   82  62  50 SE7       29.96F HX  83
PERRY *          N/A     76  69  78 E5        29.97S
$$

IAZ004>006-015-016-023>025-035-036-191900-
   NORTH CENTRAL IOWA

CITY           SKY/WX    TMP DP  RH WIND       PRES   REMARKS
ALGONA *       SUNNY     75  66  73 SE6       29.97F
CLARION *      SUNNY     75  66  73 SE5       29.97F
ESTHERVILLE    MOSUNNY   73  65  75 S5        29.96F
6HR MIN TEMP:  51; 6HR MAX TEMP:  73;

FORT DODGE *   SUNNY     75  64  69 E8        29.97F
MASON CITY     SUNNY     76  61  59 VRB6      29.99F
6HR MIN TEMP:  53; 6HR MAX TEMP:  76;

FOREST CITY *  PTSUNNY   77  63  61 S3        29.98F
WEBSTER CITY * MOSUNNY   77  64  65 VRB6G12   29.95F
IOWA FALLS *     N/A     77  64  62 E3        29.99F
$$

IAZ007>011-017>019-026>030-037>042-050>054-066-191900-
   NORTHEAST IOWA

CITY           SKY/WX    TMP DP  RH WIND       PRES   REMARKS
CEDAR RAPIDS   SUNNY     77  60  55 SE5       29.97S
6HR MIN TEMP:  57; 6HR MAX TEMP:  77;

CHARLES CITY * SUNNY     75  63  64 VRB5      29.98F
CLINTON *      SUNNY     77  60  55 VRB3      29.98F
DECORAH *      SUNNY     75  59  57 VRB5G12   29.98S
DUBUQUE        SUNNY     76  59  55 SW6       29.99F
6HR MIN TEMP:  56; 6HR MAX TEMP:  76;

MONTICELLO *   SUNNY     77  59  53 SE6       29.98S
OELWEIN *      SUNNY     75  59  57 SW7       29.99S
WATERLOO       SUNNY     77  58  51 S5        29.96F
6HR MIN TEMP:  56; 6HR MAX TEMP:  78;

$$

IAZ064-065-067-068-078-191900-
   EAST CENTRAL IOWA

CITY           SKY/WX    TMP DP  RH WIND       PRES   REMARKS
DAVENPORT      SUNNY     79  60  52 E9        29.99F HX  80
6HR MIN TEMP:  62; 6HR MAX TEMP:  80;

IOWA CITY      SUNNY     80  61  52 SE6       29.98S HX  81
6HR MIN TEMP:  62; 6HR MAX TEMP:  80;

MT. PLEASANT * SUNNY     81  63  54 E5        29.96F HX  82
MUSCATINE *    SUNNY     81  59  47 E6        29.96F HX  81
QUAD CITIES    SUNNY     79  58  48 SE5       29.97F HX  80
6HR MIN TEMP:  65; 6HR MAX TEMP:  80;

$$

IAZ062-063-075>077-085>089-095>099-191900-
   SOUTHEAST IOWA

CITY           SKY/WX    TMP DP  RH WIND       PRES   REMARKS
BURLINGTON     SUNNY     80  65  59 E6        29.96F HX  82
6HR MIN TEMP:  66; 6HR MAX TEMP:  80;

FAIRFIELD *    MOSUNNY   82  63  51 VRB5G15   29.95F HX  83
FORT MADISON * SUNNY     81  70  69 SE5       29.97S HX  84
KEOKUK *       SUNNY     82  66  57 E5        29.95S HX  85
OSKALOOSA *      N/A     82  65  57 E5        29.96F HX  83
CENTERVILLE *    N/A     84  61  45 CALM      29.98S HX  84
OTTUMWA        PTSUNNY   82  64  54 E7        29.95F HX  83
6HR MIN TEMP:  63; 6HR MAX TEMP:  83;

WASHINGTON *   SUNNY     79  64  61 VRB5      29.98S HX  81
$$

ABBREVIATIONS USED IN REMARKS
   TC - TEMPERATURES IN CELSIUS
  WCI - WIND CHILL INDEX
   HX - HEAT INDEX
  VSB - VISIBILITY
$$





USA.gov is the U.S. government's official web portal to all federal, state and local government web resources and services.